Tracking 19170 objects as of 23-May-2018
HD Live streaming from Space Station
objects crossing your sky now

FLOCK 3PP 2

Track FLOCK 3PP 2 now!
10-day predictions


NORAD ID: 43120
Int'l Code: 2018-004K
Perigee: 499.1 km
Apogee: 513.7 km
Inclination: 97.5 °
Period: 94.6 minutes
Semi major axis: 6877 km
RCS: Unknown
Launch date: January 12, 2018
Source: United States (US)
Launch site: SRIHARIKOTA (SRI)
aabbcc
Your satellite tracking list
Your tracking list is empty




NASA's NSSDC Master Catalog

Two Line Element Set (TLE):
1 43120U 18004K   18143.16293372  .00000640  00000-0  30988-4 0  9995
2 43120  97.5364 205.7149 0010652 173.2852 186.8528 15.22181650 19904
Source of the keplerian elements: AFSPC